Back to catalog

FENGYUN 1C DEB

AliveSSO
NORAD 30472·DEBRIS·🇨🇳 China

Launched May 10, 1999 from Taiyuan Satellite Launch Center

Loading…

Next Passes (next 24 hours)

TLE

FreshSource: Space-Track

Epoch: Sep 14, 2026, 06:46 UTC

1 30472U 99025AGK 26257.28213402  .00005361  00000-0  11497-2 0  9994
2 30472  98.6609  13.7880 0033818 314.6990  75.3383 14.58738212 20471

Track FENGYUN 1C DEB in real time with AllMySat

Download on the App Store